Location: Hebron
(33.0265°N, 96.8636°W)
Time: 13:45:30
(UTC+00:00)

Okean 1 - Pass Details

Date: 04 July 2022
Orbit: 532 x 552 km, 82.5° (Epoch: 18 August)

Event Time Altitude Azimuth Distance (km) Brightness Sun altitude
Rises 10:27:35 0° 336° (NNW) 2,684 7.0 -10.8°
Reaches altitude 10° 10:30:06 10° 321° (NW) 1,787 5.9 -10.4°
Maximum altitude 10:33:06 21° 271° (W) 1,218 4.6 -9.9°
Enters shadow 10:35:36 12° 226° (SW) 1,625 5.1 -9.4°
